Content
SEND FEEDBACK

Daily
Averages
Monthly
Summary
United States of America

CARRSVILLE, VIRGINIA


Home > North America > United States > Virginia
Elevation: 80 feet     Latitude: 36 41N     Longitude: 076 47W

WEATHER
 
SELECT A DAY
Number of Records: 391,064;   Date Range: 5/11/98 - 8/12/14
 
SHARE

PRINT THIS DATA

[ ← Previous Day ]
WEATHER ALMANAC - JANUARY 31, 2013
[ Next Day → ]
[ °C ]   °F
Weather ElementAverageHighLow
Temperature51 °F69.8 °F (12:35 am)37.4 °F (9:55 pm)
Dewpoint36.1 °F64.4 °F (12:35 am)21.2 °F (11:35 pm)
Humidity59 %100 % (2:35 am)37 % (4:15 pm)
Barometer29.72 in30.01 in (11:35 pm)29.34 in (2:15 am)
Wind Speed17.2 mph29.9 mph (3:15 am)
Wind Gust48.3 mph (2:55 am)
Weather ElementAverage
Visibility10 mi
Wind DirectionWSW (246.1 °)

Weather ElementTotal
Precipitation1.08 in
Heating Degree Days11.4 (Base 65)
Growing Degree Days3.6 (Base 50)
Averaged from 71 records on January 31, 2013
WEATHER CONDITIONS BREAKOUT
WIND DIRECTION BREAKOUT
WEATHER BY HOUR - JANUARY 31, 2013
[ °C ]   °F
Local TimeTemperatureDewpointHumidityBarometerVisibilityWind DirectionWind SpeedGust SpeedPrecipitationEventsConditions
12:35 AM69.8 °F64.4 °F83 %29.43 in10.0 miSouth (180°)19.6 mph36.8 mphRainLight Rain
12:55 AM69.8 °F64.4 °F83 %29.40 in10.0 miSouth (170°)25.3 mph36.8 mphMostly Cloudy
1:15 AM69.8 °F64.4 °F83 %29.38 in10.0 miSouth (170°)23.0 mph39.1 mphRainLight Rain
1:35 AM69.8 °F64.4 °F83 %29.36 in10.0 miSouth (180°)23.0 mph32.2 mphMostly Cloudy
1:55 AM69.8 °F64.4 °F83 %29.35 in10.0 miSouth (180°)24.2 mph35.7 mphOvercast
2:15 AM69.8 °F64.4 °F83 %29.34 in7.0 miSouth (180°)28.8 mph38.0 mphRainLight Rain
2:35 AM60.8 °F60.8 °F100 %29.42 in10.0 miWSW (240°)23.0 mph42.6 mph0.36 inRainLight Rain
2:55 AM60.8 °F60.8 °F100 %29.44 in10.0 miWSW (240°)26.5 mph48.3 mph0.48 inRainRain
3:15 AM57.2 °F57.2 °F100 %29.43 in10.0 miWSW (240°)29.9 mph40.3 mph0.05 inRainRain
3:35 AM57.2 °F55.4 °F94 %29.42 in10.0 miSW (220°)23.0 mph32.2 mph0.08 inRainLight Rain
3:55 AM57.2 °F53.6 °F88 %29.43 in10.0 miSW (220°)17.3 mph24.2 mph0.08 inOvercast
4:15 AM57.2 °F53.6 °F88 %29.44 in10.0 miSW (220°)18.4 mph34.5 mph0.01 inRainLight Rain
4:35 AM57.2 °F51.8 °F82 %29.44 in10.0 miSW (220°)20.7 mph31.1 mph0.01 inOvercast
4:55 AM57.2 °F51.8 °F82 %29.46 in10.0 miSW (220°)20.7 mph27.6 mph0.01 inOvercast
5:15 AM55.4 °F50.0 °F82 %29.47 in10.0 miWSW (240°)24.2 mph29.9 mphScattered Clouds
5:35 AM55.4 °F48.2 °F77 %29.48 in10.0 miSW (230°)21.9 mph34.5 mphMostly Cloudy
5:55 AM55.4 °F48.2 °F77 %29.50 in10.0 miWSW (240°)26.5 mph36.8 mphOvercast
6:15 AM55.4 °F46.4 °F72 %29.51 in10.0 miWSW (240°)19.6 mph32.2 mphOvercast
6:35 AM55.4 °F46.4 °F72 %29.53 in10.0 miWSW (240°)20.7 mph28.8 mphOvercast
6:55 AM53.6 °F46.4 °F77 %29.55 in10.0 miWSW (240°)21.9 mph29.9 mphScattered Clouds
7:15 AM53.6 °F42.8 °F67 %29.58 in10.0 miWest (280°)27.6 mph40.3 mphMostly Cloudy
7:35 AM51.8 °F41.0 °F67 %29.60 in10.0 miWest (270°)23.0 mph32.2 mphOvercast
7:55 AM51.8 °F39.2 °F62 %29.62 in10.0 miWest (270°)21.9 mph29.9 mphOvercast
8:15 AM51.8 °F41.0 °F67 %29.63 in10.0 miWest (270°)18.4 mph28.8 mphMostly Cloudy
8:35 AM51.8 °F39.2 °F62 %29.65 in10.0 miWest (270°)17.3 mph27.6 mphScattered Clouds
8:55 AM51.8 °F37.4 °F58 %29.66 in10.0 miWest (260°)18.4 mph28.8 mphClear
9:15 AM51.8 °F37.4 °F58 %29.68 in10.0 miWest (270°)23.0 mph32.2 mphScattered Clouds
9:35 AM51.8 °F37.4 °F58 %29.69 in10.0 miWNW (290°)20.7 mph29.9 mphScattered Clouds
9:55 AM50.0 °F30.2 °F47 %29.71 in10.0 miWest (280°)25.3 mph36.8 mphScattered Clouds
10:15 AM50.0 °F30.2 °F47 %29.73 in10.0 miWest (260°)19.6 mph31.1 mphClear
10:35 AM50.0 °F30.2 °F47 %29.74 in10.0 miWest (260°)23.0 mph33.4 mphClear
10:55 AM50.0 °F28.4 °F43 %29.74 in10.0 miWest (260°)24.2 mph32.2 mphClear
11:15 AM50.0 °F30.2 °F47 %29.75 in10.0 miWest (280°)18.4 mph31.1 mphClear
11:35 AM50.0 °F30.2 °F47 %29.75 in10.0 miWest (270°)20.7 mph29.9 mphClear
11:55 AM51.8 °F32.0 °F47 %29.75 in10.0 miWest (260°)16.1 mph28.8 mphClear
12:15 PM51.8 °F30.2 °F44 %29.76 in10.0 miWest (260°)23.0 mph28.8 mphClear
12:35 PM51.8 °F28.4 °F41 %29.76 in10.0 miWSW (250°)24.2 mph29.9 mphClear
12:55 PM51.8 °F28.4 °F41 %29.76 in10.0 miWSW (250°)19.6 mph28.8 mphClear
1:15 PM51.8 °F28.4 °F41 %29.76 in10.0 miWest (260°)19.6 mph27.6 mphClear
1:35 PM51.8 °F26.6 °F38 %29.76 in10.0 miWest (260°)19.6 mph35.7 mphClear
1:55 PM51.8 °F28.4 °F41 %29.75 in10.0 miWest (260°)18.4 mph26.5 mphClear
2:15 PM51.8 °F28.4 °F41 %29.76 in10.0 miWest (270°)18.4 mph29.9 mphClear
2:35 PM51.8 °F28.4 °F41 %29.77 in10.0 miWest (270°)13.8 mph28.8 mphClear
2:55 PM51.8 °F26.6 °F38 %29.77 in10.0 miWest (260°)17.3 mphClear
3:15 PM51.8 °F26.6 °F38 %29.78 in10.0 miWest (270°)20.7 mph27.6 mphClear
3:35 PM51.8 °F26.6 °F38 %29.80 in10.0 miWSW (250°)19.6 mph26.5 mphScattered Clouds
3:55 PM50.0 °F26.6 °F40 %29.81 in10.0 miWSW (250°)21.9 mph27.6 mphClear
4:15 PM50.0 °F24.8 °F37 %29.82 in10.0 miWest (260°)13.8 mph28.8 mphClear
4:35 PM48.2 °F24.8 °F40 %29.84 in10.0 miWest (270°)20.7 mph27.6 mphClear
4:55 PM48.2 °F24.8 °F40 %29.85 in10.0 miWSW (250°)17.3 mph26.5 mphClear
5:15 PM48.2 °F24.8 °F40 %29.86 in10.0 miWest (270°)19.6 mph24.2 mphScattered Clouds
5:35 PM46.4 °F24.8 °F43 %29.88 in10.0 miWest (270°)13.8 mphClear
5:55 PM46.4 °F24.8 °F43 %29.89 in10.0 miWest (260°)11.5 mphClear
6:15 PM46.4 °F24.8 °F43 %29.89 in10.0 miWest (270°)9.2 mphClear
6:35 PM44.6 °F24.8 °F46 %29.91 in10.0 miWest (270°)11.5 mphClear
6:55 PM44.6 °F24.8 °F46 %29.92 in10.0 miWest (270°)9.2 mphClear
7:15 PM44.6 °F24.8 °F46 %29.94 in10.0 miWest (270°)9.2 mphClear
7:35 PM42.8 °F24.8 °F49 %29.95 in10.0 miWest (270°)8.1 mphClear
7:55 PM42.8 °F24.8 °F49 %29.96 in10.0 miWest (280°)8.1 mphClear
8:15 PM42.8 °F24.8 °F49 %29.96 in10.0 miWest (280°)6.9 mphClear
8:35 PM41.0 °F24.8 °F53 %29.97 in10.0 miWest (260°)5.8 mphClear
8:55 PM39.2 °F24.8 °F56 %29.97 in10.0 miWest (260°)4.6 mphClear
9:15 PM39.2 °F23.0 °F52 %29.98 in10.0 miWest (270°)3.5 mphClear
9:35 PM39.2 °F24.8 °F56 %29.97 in10.0 miWest (260°)3.5 mphClear
9:55 PM37.4 °F24.8 °F60 %29.98 in10.0 miCalmClear
10:15 PM37.4 °F24.8 °F60 %29.98 in10.0 miSSW (210°)3.5 mphClear
10:35 PM37.4 °F24.8 °F60 %30.00 in10.0 miSW (230°)8.1 mphClear
10:55 PM37.4 °F24.8 °F60 %30.00 in10.0 miWSW (240°)5.8 mphClear
11:15 PM37.4 °F24.8 °F60 %30.00 in10.0 miWest (270°)6.9 mphClear
11:35 PM39.2 °F21.2 °F49 %30.01 in10.0 miWest (260°)6.9 mphClear
11:55 PM37.4 °F23.0 °F56 %30.01 in10.0 miWSW (250°)4.6 mphClear
Hourly data recorded from KSFQ, located miles away from Carrsville, Virginia







STORIES FROM OUR PARTNERS